Location: Joplin
(37.0842°N, 94.5131°W)
Time: 05:40:02
(UTC-05:00)

ISS - Visible Passes

Search period start: 17 September 2021 00:00
Search period end: 27 September 2021 00:00
Orbit: 419 x 423 km, 51.6° (Epoch: 17 September)

Date Brightness Start Highest point End Pass type
(mag) Time Alt. Az. Time Alt. Az. Time Alt. Az.
17 Sep -2.2 20:47:46 10° WSW 20:50:53 34° NW 20:53:11 15° NNE visible
18 Sep -3.2 20:00:37 10° WSW 20:03:56 58° NW 20:07:16 10° NE visible
18 Sep -0.7 21:39:57 10° NW 21:41:22 12° NNW 21:41:35 12° NNW visible
19 Sep -1.0 20:52:04 10° WNW 20:54:15 16° NNW 20:56:26 10° NNE visible
20 Sep -1.4 20:04:27 10° W 20:07:10 22° NNW 20:09:53 10° NNE visible
22 Sep -0.9 20:09:20 10° NW 20:10:38 12° NNW 20:11:58 10° N visible
